Date String (YYYY-MM-DD hh:mm:ss) UTC,Instrument flags,Ambient pressure (hPa),Sample flow (lpm),Bypass flow (lpm),Sample temperature (°C),Ambient temperature (°C),ASC tube jacket temperature (°C),LED temperature (°C),Box temperature (°C),Sample RH (%),Span deviation,Mass concentration (μg/m³),Mass concentration (μg/m³),Mass concentration (μg/m³)
DateTimeUTC,F1_M11,P_M11,Q1_M11,Q2_M11,T1_M11,T2_M11,T3_M11,T4_M11,T5_M11,U1_M11,ZSPAN_M11,X0_M11,X2_M11,X1_M11
2021-10-21 05:00:00,,0831.2,5.00,0.00,27.0,26.2,00.0,36.1,28.9,12.9,0000.0,0014.46,0004.61,0003.78
2021-10-21 05:01:00,,0831.2,5.00,0.00,27.0,26.2,00.0,36.1,28.8,12.9,0000.0,0013.79,0004.57,0003.77
2021-10-21 05:02:00,,0831.2,5.01,0.00,27.0,26.2,00.0,36.1,28.9,13.0,0000.0,0013.07,0004.56,0003.74
2021-10-21 05:03:00,,0831.2,5.00,0.00,27.0,26.2,00.0,36.1,28.9,13.0,0000.0,0013.11,0004.62,0003.74
2021-10-21 05:04:00,,0831.2,4.99,0.00,27.0,26.2,00.0,36.1,28.8,13.0,0000.0,0012.70,0004.65,0003.73
2021-10-21 05:05:00,,0831.2,5.00,0.00,27.1,26.2,00.0,36.1,28.8,13.0,0000.0,0011.83,0004.66,0003.72
2021-10-21 05:06:00,,0831.2,5.00,0.00,27.1,26.2,00.0,36.1,28.8,13.0,0000.0,0011.63,0004.67,0003.71
2021-10-21 05:07:00,,0831.2,5.01,0.00,27.1,26.2,00.0,36.1,28.8,12.9,0000.0,0012.01,0004.67,0003.71
2021-10-21 05:08:00,,0831.2,4.99,0.00,27.1,26.2,00.0,36.1,28.8,12.9,0000.0,0011.82,0004.68,0003.71
2021-10-21 05:09:00,,0831.2,5.00,0.00,27.0,26.2,00.0,36.1,28.8,12.8,0000.0,0011.99,0004.63,0003.69
2021-10-21 05:10:00,,0831.2,5.00,0.00,27.0,26.2,00.0,36.1,28.8,12.8,0000.0,0013.00,0004.61,0003.67
2021-10-21 05:11:00,,0831.2,5.01,0.00,27.0,26.2,00.0,36.1,28.8,12.8,0000.0,0013.26,0004.60,0003.65
2021-10-21 05:12:00,,0831.2,5.00,0.00,27.0,26.2,00.0,36.1,28.8,12.8,0000.0,0013.95,0004.59,0003.63
2021-10-21 05:13:00,,0831.2,5.00,0.00,27.0,26.2,00.0,36.1,28.8,12.8,0000.0,0014.07,0004.55,0003.61
2021-10-21 05:14:00,,0831.2,5.00,0.00,27.0,26.2,00.0,36.1,28.8,12.9,0000.0,0013.21,0004.46,0003.58
2021-10-21 05:15:00,,0831.2,5.00,0.00,27.0,26.2,00.0,36.1,28.8,12.9,0000.0,0012.98,0004.39,0003.57
2021-10-21 05:16:00,,0831.2,5.00,0.00,27.0,26.2,00.0,36.1,28.8,12.9,0000.0,0012.30,0004.32,0003.57
2021-10-21 05:17:00,,0831.2,5.00,0.00,27.0,26.2,00.0,36.1,28.8,12.9,0000.0,0011.72,0004.28,0003.56
2021-10-21 05:18:00,,0831.2,4.99,0.00,27.0,26.2,00.0,36.1,28.8,12.8,0000.0,0011.29,0004.28,0003.54
2021-10-21 05:19:00,,0831.2,5.00,0.00,27.0,26.2,00.0,36.1,28.8,12.8,0000.0,0011.32,0004.28,0003.52
2021-10-21 05:20:00,,0831.2,5.01,0.00,27.0,26.2,00.0,36.1,28.8,12.9,0000.0,0011.72,0004.32,0003.52
2021-10-21 05:21:00,,0831.2,5.00,0.00,27.0,26.2,00.0,36.1,28.8,12.9,0000.0,0010.96,0004.35,0003.53
2021-10-21 05:22:00,,0831.2,5.00,0.00,27.0,26.2,00.0,36.1,28.8,12.9,0000.0,0011.42,0004.36,0003.53
2021-10-21 05:23:00,,0831.2,4.99,0.00,27.0,26.2,00.0,36.1,28.8,12.8,0000.0,0011.48,0004.35,0003.53
2021-10-21 05:24:00,,0831.2,5.00,0.00,27.0,26.2,00.0,36.1,28.8,12.9,0000.0,0011.16,0004.38,0003.53
2021-10-21 05:25:00,,0831.2,4.99,0.00,27.0,26.2,00.0,36.1,28.8,12.9,0000.0,0010.93,0004.39,0003.53
2021-10-21 05:26:00,,0831.2,5.01,0.00,27.0,26.1,00.0,36.0,28.7,12.9,0000.0,0011.29,0004.37,0003.53
2021-10-21 05:27:00,,0831.2,5.00,0.00,27.0,26.1,00.0,36.1,28.7,12.9,0000.0,0013.17,0004.39,0003.51
2021-10-21 05:28:00,,0831.2,5.00,0.00,27.0,26.1,00.0,36.0,28.7,12.9,0000.0,0014.63,0004.44,0003.51
2021-10-21 05:29:00,,0831.2,4.99,0.00,27.0,26.1,00.0,36.0,28.7,12.9,0000.0,0015.01,0004.51,0003.52
2021-10-21 05:30:00,,0831.1,5.01,0.00,27.0,26.1,00.0,36.0,28.7,12.9,0000.0,0015.26,0004.50,0003.52
2021-10-21 05:31:00,,0831.0,5.00,0.00,27.0,26.1,00.0,36.0,28.7,12.9,0000.0,0015.40,0004.49,0003.52
2021-10-21 05:32:00,,0831.1,4.99,0.00,27.0,26.1,00.0,36.0,28.7,12.9,0000.0,0014.95,0004.49,0003.54
2021-10-21 05:33:00,,0831.2,4.99,0.00,27.0,26.1,00.0,36.0,28.7,13.0,0000.0,0014.47,0004.51,0003.56
2021-10-21 05:34:00,,0831.3,5.00,0.00,27.0,26.1,00.0,36.0,28.7,13.0,0000.0,0014.58,0004.55,0003.58
2021-10-21 05:35:00,,0831.2,5.00,0.00,27.0,26.1,00.0,36.0,28.7,12.9,0000.0,0014.44,0004.57,0003.61
2021-10-21 05:36:00,,0831.2,5.00,0.00,27.0,26.1,00.0,36.0,28.7,13.0,0000.0,0014.78,0004.61,0003.63
2021-10-21 05:37:00,,0831.1,5.00,0.00,26.9,26.1,00.0,36.0,28.7,13.0,0000.0,0014.57,0004.69,0003.66
2021-10-21 05:38:00,,0831.0,5.00,0.00,26.9,26.1,00.0,36.0,28.7,12.9,0000.0,0012.98,0004.72,0003.67
2021-10-21 05:39:00,,0831.0,5.01,0.00,26.9,26.1,00.0,36.0,28.7,12.9,0000.0,0012.05,0004.76,0003.69
2021-10-21 05:40:00,,0831.0,5.00,0.00,26.9,26.1,00.0,36.0,28.7,13.0,0000.0,0012.00,0004.72,0003.71
2021-10-21 05:41:00,,0831.0,4.99,0.00,26.9,26.1,00.0,36.0,28.7,13.0,0000.0,0012.19,0004.73,0003.72
2021-10-21 05:42:00,,0831.0,5.01,0.00,26.9,26.1,00.0,36.0,28.7,13.0,0000.0,0012.12,0004.76,0003.74
2021-10-21 05:43:00,,0831.0,4.99,0.00,26.9,26.1,00.0,36.0,28.7,13.0,0000.0,0012.12,0004.77,0003.74
2021-10-21 05:44:00,,0831.0,4.99,0.00,26.9,26.1,00.0,36.0,28.7,13.0,0000.0,0012.30,0004.78,0003.74
2021-10-21 05:45:00,,0830.9,4.99,0.00,26.9,26.1,00.0,36.0,28.7,12.9,0000.0,0012.40,0004.79,0003.73
2021-10-21 05:46:00,,0830.9,5.00,0.00,26.9,26.0,00.0,36.0,28.7,12.9,0000.0,0012.25,0004.73,0003.71
2021-10-21 05:47:00,,0830.9,5.00,0.00,26.9,26.0,00.0,36.0,28.7,12.9,0000.0,0012.02,0004.70,0003.69
2021-10-21 05:48:00,,0830.9,5.00,0.00,26.9,26.0,00.0,36.0,28.7,12.9,0000.0,0012.26,0004.64,0003.66
2021-10-21 05:49:00,,0831.0,5.00,0.00,26.9,26.0,00.0,36.0,28.6,13.0,0000.0,0012.13,0004.57,0003.64
2021-10-21 05:50:00,,0831.1,4.99,0.00,26.9,26.0,00.0,36.0,28.6,13.0,0000.0,0012.28,0004.56,0003.62
2021-10-21 05:51:00,,0831.0,5.00,0.00,26.9,26.0,00.0,36.0,28.6,12.9,0000.0,0012.54,0004.58,0003.59
2021-10-21 05:52:00,,0831.0,4.99,0.00,26.9,25.9,00.0,36.0,28.6,13.0,0000.0,0012.80,0004.59,0003.57
2021-10-21 05:53:00,,0831.0,5.00,0.00,26.9,25.9,00.0,36.0,28.6,13.0,0000.0,0012.83,0004.59,0003.56
2021-10-21 05:54:00,,0831.0,5.00,0.00,26.9,25.9,00.0,36.0,28.6,13.0,0000.0,0012.95,0004.57,0003.54
2021-10-21 05:55:00,,0831.0,5.00,0.00,26.9,25.9,00.0,36.0,28.6,13.0,0000.0,0013.07,0004.56,0003.52
2021-10-21 05:56:00,,0831.0,5.00,0.00,26.8,25.9,00.0,36.0,28.6,13.0,0000.0,0012.33,0004.51,0003.50
2021-10-21 05:57:00,,0831.0,5.00,0.00,26.8,25.9,00.0,36.0,28.5,13.0,0000.0,0013.14,0004.54,0003.49
2021-10-21 05:58:00,,0831.0,5.01,0.00,26.8,25.9,00.0,36.0,28.6,13.0,0000.0,0013.20,0004.52,0003.49
2021-10-21 05:59:00,,0830.9,5.00,0.00,26.8,25.9,00.0,36.0,28.6,13.1,0000.0,0013.11,0004.51,0003.48
